�N����,����,�g�[���i���ԁj���x,�g�[�����x,��g�[���i���ցj���x,����
 2004/05/01, 0:00,21.4,52,17.5,18.7
 2004/05/01, 0:15,21.3,51,17.4,18.7
 2004/05/01, 0:30,21.3,51,17.4,18.8
 2004/05/01, 0:45,21,51,17.2,18.8
 2004/05/01, 1:00,20.9,51,17.2,18.8
 2004/05/01, 1:15,20.8,51,17.1,18.9
 2004/05/01, 1:30,20.6,51,17.2,18.8
 2004/05/01, 1:45,20.5,51.5,17.1,18.9
 2004/05/01, 2:00,20.4,52,17,18.9
 2004/05/01, 2:15,20.3,52,17,19
 2004/05/01, 2:30,20.2,52,16.9,18.9
 2004/05/01, 2:45,20.1,52,16.9,19
 2004/05/01, 3:00,20,52,16.9,19
 2004/05/01, 3:15,19.9,52,16.8,19
 2004/05/01, 3:30,19.8,52,16.7,19
 2004/05/01, 3:45,19.7,53,16.6,18.8
 2004/05/01, 4:00,19.6,53,16.6,18.9
 2004/05/01, 4:15,19.5,53,16.5,18.9
 2004/05/01, 4:30,19.4,53,16.4,18.9
 2004/05/01, 4:45,19.2,53,16.4,18.9
 2004/05/01, 5:00,19.2,53,16.3,18.9
 2004/05/01, 5:15,19,53,16.2,18.9
 2004/05/01, 5:30,19,53,16.2,18.9
 2004/05/01, 5:45,18.9,53,16.1,18.9
 2004/05/01, 6:00,18.8,53,16.1,18.9
 2004/05/01, 6:15,18.9,53,16.1,18.9
 2004/05/01, 6:30,18.8,53,16.1,18.9
 2004/05/01, 6:45,18.9,54,16,18.9
 2004/05/01, 7:00,18.9,58,16.1,19
 2004/05/01, 7:15,19.4,59,16.1,19
 2004/05/01, 7:30,19.8,59,16.1,19
 2004/05/01, 7:45,19.6,59.5,16.2,18.8
 2004/05/01, 8:00,19.8,61,16.2,18.6
 2004/05/01, 8:15,19.9,64,16.2,18.6
 2004/05/01, 8:30,20,65,16.4,18.4
 2004/05/01, 8:45,20,62.5,16.4,18.4
 2004/05/01, 9:00,20,64,16.5,18.3
 2004/05/01, 9:15,20,63,16.5,18.6
 2004/05/01, 9:30,20.1,62,16.6,18.7
 2004/05/01, 9:45,20,62.5,16.8,18.7
 2004/05/01,10:00,20,63,16.9,18.7
 2004/05/01,10:15,20.1,64,17,18.8
 2004/05/01,10:30,20.2,64,17.2,18.8
 2004/05/01,10:45,20.4,62.5,17.4,18.8
 2004/05/01,11:00,20.5,63,17.4,18.8
 2004/05/01,11:15,20.6,62.5,17.5,18.6
 2004/05/01,11:30,20.9,65,17.6,18.5
 2004/05/01,11:45,21,63,17.6,18.5
 2004/05/01,12:00,21.4,60,17.8,18.5
 2004/05/01,12:15,21.2,58,18,18.6
 2004/05/01,12:30,21.3,57,18,18.7
 2004/05/01,12:45,21.5,57,18.1,18.7
 2004/05/01,13:00,21.5,56,18.2,18.7
 2004/05/01,13:15,21.6,55.5,18.4,19.1
 2004/05/01,13:30,21.6,56,18.5,19.1
 2004/05/01,13:45,21.6,56,18.5,19.2
 2004/05/01,14:00,21.8,56,18.6,19.2
 2004/05/01,14:15,21.8,56,18.6,19.4
 2004/05/01,14:30,21.9,55,18.8,19.4
 2004/05/01,14:45,21.9,55,18.8,19.5
 2004/05/01,15:00,22,55,18.9,19.5
 2004/05/01,15:15,22,54.5,18.9,19.4
 2004/05/01,15:30,22.1,55,19,19.3
 2004/05/01,15:45,22.2,55,19.1,19.4
 2004/05/01,16:00,22.2,54,19.2,19.4
 2004/05/01,16:15,22.3,54,19.2,19.5
 2004/05/01,16:30,22.3,54,19.2,19.2
 2004/05/01,16:45,22.3,54,19.2,18.8
 2004/05/01,17:00,22.4,54,19.3,18.8
 2004/05/01,17:15,22.4,54,19.3,19.1
 2004/05/01,17:30,22.4,54,19.3,19.1
 2004/05/01,17:45,22.4,54,19.3,19
 2004/05/01,18:00,22.3,54,19.3,22.6
 2004/05/01,18:15,22.3,54,19.3,22.8
 2004/05/01,18:30,22.3,55,19.3,22.9
 2004/05/01,18:45,22.3,55.5,19.4,22.9
 2004/05/01,19:00,22.3,56,19.5,22.8
 2004/05/01,19:15,22.5,55.5,19.5,22.8
 2004/05/01,19:30,22.7,56,19.6,22.7
 2004/05/01,19:45,22.7,54,19.6,22.6
 2004/05/01,20:00,22.7,54,19.6,22.4
 2004/05/01,20:15,23,55,19.7,22.3
 2004/05/01,20:30,23.2,57,19.6,22.2
 2004/05/01,20:45,23.6,60,19.8,22.1
 2004/05/01,21:00,23.8,60,19.7,21.9
 2004/05/01,21:15,24.2,61.5,19.7,21.9
 2004/05/01,21:30,24.3,61,19.7,21.6
 2004/05/01,21:45,24.1,59,19.8,21.6
 2004/05/01,22:00,24,58,20,21.2
 2004/05/01,22:15,24,59,20.2,21
 2004/05/01,22:30,24.3,59,20,20.8
 2004/05/01,22:45,24.2,59,20,20.6
 2004/05/01,23:00,24,59,20.1,20.4
 2004/05/01,23:15,23.9,58,20,20.5
 2004/05/01,23:30,23.7,58,20,20.2
 2004/05/01,23:45,23.6,58,20,19.9
 2004/05/02, 0:00,23.5,58,20,19.9
 2004/05/02, 0:15,23.5,58,20.2,19.8
 2004/05/02, 0:30,23.4,58,20.1,19.7
 2004/05/02, 0:45,23.3,58,20.1,19.5
 2004/05/02, 1:00,23.2,58,20.1,19.3
 2004/05/02, 1:15,23.1,58,20.1,19.3
 2004/05/02, 1:30,23.1,58,20,19.3
 2004/05/02, 1:45,23,58,20,19.2
 2004/05/02, 2:00,22.9,58,20,19.2
 2004/05/02, 2:15,22.9,58,20,19.1
 2004/05/02, 2:30,22.8,58,20,19.1
 2004/05/02, 2:45,22.7,58,20,19
 2004/05/02, 3:00,22.7,58,19.9,19
 2004/05/02, 3:15,22.6,58,20,18.8
 2004/05/02, 3:30,22.5,58,19.9,18.7
 2004/05/02, 3:45,22.3,58,19.9,18.8
 2004/05/02, 4:00,22.2,58,19.7,18.7
 2004/05/02, 4:15,22.2,58,19.7,18.6
 2004/05/02, 4:30,22.1,58,19.6,18.7
 2004/05/02, 4:45,22,58,19.6,18.6
 2004/05/02, 5:00,22,58,19.5,18.7
 2004/05/02, 5:15,22,58.5,19.6,18.7
 2004/05/02, 5:30,22.4,60,19.5,18.7
 2004/05/02, 5:45,22.5,61,19.5,18.7
 2004/05/02, 6:00,22.6,60,19.5,18.7
 2004/05/02, 6:15,22.8,60,19.5,18.8
 2004/05/02, 6:30,22.9,60,19.5,18.8
 2004/05/02, 6:45,23,59.5,19.5,18.8
 2004/05/02, 7:00,22.9,59,19.6,19
 2004/05/02, 7:15,22.8,58,19.6,19
 2004/05/02, 7:30,22.8,58,19.7,19.2
 2004/05/02, 7:45,22.9,57,19.8,19.1
 2004/05/02, 8:00,22.9,57,19.9,19.2
 2004/05/02, 8:15,22.9,57,19.9,19.2
 2004/05/02, 8:30,23.1,56,19.8,19.4
 2004/05/02, 8:45,23.2,54,19.8,19.4
 2004/05/02, 9:00,23.7,50,19.9,19.6
 2004/05/02, 9:15,24.1,53,20.1,19.6
 2004/05/02, 9:30,23.8,56,20.7,19.7
 2004/05/02, 9:45,23.2,47.5,20.5,19.8
 2004/05/02,10:00,23.6,42,20.5,20
 2004/05/02,10:15,23.5,40.5,20.5,20
 2004/05/02,10:30,24.1,40,20.8,20.2
 2004/05/02,10:45,24.4,38.5,21.1,20.3
 2004/05/02,11:00,24.7,40,21.2,20.4
 2004/05/02,11:15,24.8,39,21.1,20.7
 2004/05/02,11:30,25,42,21.2,20.8
 2004/05/02,11:45,25,42.5,21.4,20.9
 2004/05/02,12:00,25.1,43,21.4,21
 2004/05/02,12:15,25.4,41,21.5,21.1
 2004/05/02,12:30,25.5,43,21.6,21.2
 2004/05/02,12:45,25.6,40.5,21.6,21.4
 2004/05/02,13:00,25.8,42,22.9,21.5
 2004/05/02,13:15,26.6,38,22.4,21.6
 2004/05/02,13:30,27,35,22.3,21.7
 2004/05/02,13:45,27.5,30.5,22.3,21.9
 2004/05/02,14:00,27.5,37,22.5,22
 2004/05/02,14:15,27.5,36.5,22.5,22
 2004/05/02,14:30,27.6,33,22.5,22.2
 2004/05/02,14:45,27.5,38,22.5,22.2
 2004/05/02,15:00,27.2,40,22.6,22.4
 2004/05/02,15:15,27.4,37.5,22.7,22.5
 2004/05/02,15:30,27.4,38,22.7,22.6
 2004/05/02,15:45,27.5,37.5,22.8,22.6
 2004/05/02,16:00,27.7,37,22.8,22.6
 2004/05/02,16:15,26.7,31,22.7,22.6
 2004/05/02,16:30,27.3,34,22.8,22.5
 2004/05/02,16:45,27,33.5,22.9,22.5
 2004/05/02,17:00,26.9,35,23.1,22.4
 2004/05/02,17:15,26.8,34,23.1,22.3
 2004/05/02,17:30,26.4,30,23.2,22.2
 2004/05/02,17:45,26.5,27.5,23.1,22.1
 2004/05/02,18:00,26.3,30,22.8,22.1
 2004/05/02,18:15,26.4,30,22.7,22
 2004/05/02,18:30,25.8,28,22.7,21.8
 2004/05/02,18:45,25.5,31.5,22.5,21.8
 2004/05/02,19:00,25.2,32,22.5,21.6
 2004/05/02,19:15,25.2,35.5,22.5,21.5
 2004/05/02,19:30,26.2,42,22.6,21.5
 2004/05/02,19:45,26.8,45,22.5,21.4
 2004/05/02,20:00,26.8,44,22.3,21.3
 2004/05/02,20:15,26.5,41,22.2,21.3
 2004/05/02,20:30,26.1,39,22.2,21.2
 2004/05/02,20:45,25.1,39,22,21.1
 2004/05/02,21:00,25.3,41,21.9,21
 2004/05/02,21:15,24,42,21.8,21
 2004/05/02,21:30,24,54,22,20.9
 2004/05/02,21:45,24.1,59,21.9,20.8
 2004/05/02,22:00,24.8,54,21.8,20.8
 2004/05/02,22:15,24.2,58.5,21.8,20.7
 2004/05/02,22:30,24.4,59,21.9,20.6
 2004/05/02,22:45,24.5,61,21.8,20.5
 2004/05/02,23:00,24.3,61,21.6,20.5
 2004/05/02,23:15,24.3,61.5,21.5,20.4
 2004/05/02,23:30,24.2,61,21.4,20.4
 2004/05/02,23:45,24.1,60.5,21.4,20.4
 2004/05/03, 0:00,23.8,60,21.2,20.3
 2004/05/03, 0:15,23.7,60,21.1,20.4
 2004/05/03, 0:30,23.6,59,21.1,20.3
 2004/05/03, 0:45,23.5,58.5,21,20.3
 2004/05/03, 1:00,23.3,58,21,20.2
 2004/05/03, 1:15,23.2,57,21,20.2
 2004/05/03, 1:30,23.2,57,20.9,20.1
 2004/05/03, 1:45,23.1,57,20.8,20
 2004/05/03, 2:00,23.1,57,20.8,20.1
 2004/05/03, 2:15,23,57,20.7,20
 2004/05/03, 2:30,22.9,57,20.7,20
 2004/05/03, 2:45,22.8,57,20.5,20.1
 2004/05/03, 3:00,22.7,57,20.5,20
 2004/05/03, 3:15,22.6,57,20.5,20
 2004/05/03, 3:30,22.6,57,20.4,19.9
 2004/05/03, 3:45,22.5,56,20.4,19.9
 2004/05/03, 4:00,22.4,57,20.4,19.9
 2004/05/03, 4:15,22.3,56,20.3,19.8
 2004/05/03, 4:30,22.2,56,20.3,19.8
 2004/05/03, 4:45,22.2,56,20.2,19.8
 2004/05/03, 5:00,22.2,56,20.2,19.8
 2004/05/03, 5:15,22.1,55,20.2,19.7
 2004/05/03, 5:30,22.1,56,20.1,19.7
 2004/05/03, 5:45,22,56,20.1,19.7
 2004/05/03, 6:00,21.9,56,20.1,19.7
 2004/05/03, 6:15,22,56.5,20.1,19.6
 2004/05/03, 6:30,22.2,57,20.1,19.7
 2004/05/03, 6:45,22.3,57,20.1,19.8
 2004/05/03, 7:00,22.4,57,20.1,19.7
 2004/05/03, 7:15,22.7,57.5,20.1,19.7
 2004/05/03, 7:30,22.6,57,20.3,19.7
 2004/05/03, 7:45,22.6,56,20.4,19.8
 2004/05/03, 8:00,22.7,57,20.2,19.8
 2004/05/03, 8:15,22.8,56,20.3,19.9
 2004/05/03, 8:30,22.4,56,20.3,20
 2004/05/03, 8:45,22.8,55,20.4,20.1
 2004/05/03, 9:00,22.5,56,20.6,20.6
 2004/05/03, 9:15,22.6,55,20.8,20.6
 2004/05/03, 9:30,23,54,20.7,20.6
 2004/05/03, 9:45,23.5,53.5,20.6,20.7
 2004/05/03,10:00,23.7,51,20.7,20.8
 2004/05/03,10:15,24.3,51.5,20.9,20.9
 2004/05/03,10:30,24.6,50,21,21
 2004/05/03,10:45,25,50,21,21.1
 2004/05/03,11:00,25.1,49,21.3,21.3
 2004/05/03,11:15,24.5,50.5,21.4,21.4
 2004/05/03,11:30,24.6,52,21.4,21.5
 2004/05/03,11:45,24.4,52.5,21.5,21.6
 2004/05/03,12:00,24.2,54,21.6,21.8
 2004/05/03,12:15,24.3,54,21.8,22
 2004/05/03,12:30,24.4,54,21.8,22.1
 2004/05/03,12:45,24.5,53,21.8,22.1
 2004/05/03,13:00,24.6,53,21.9,22.3
 2004/05/03,13:15,24.6,52.5,22,22.5
 2004/05/03,13:30,24.7,52,22,22.6
 2004/05/03,13:45,24.8,52,22,22.8
 2004/05/03,14:00,24.8,52,22.1,22.9
 2004/05/03,14:15,24.9,51.5,22.1,23
 2004/05/03,14:30,25,51,22.1,23.2
 2004/05/03,14:45,25,51,22.1,23.3
 2004/05/03,15:00,24.9,51,22.1,23.4
 2004/05/03,15:15,24.9,51,22,23.5
 2004/05/03,15:30,24.7,51,22,23.5
 2004/05/03,15:45,24.6,51,21.9,23.6
 2004/05/03,16:00,24.6,52,21.9,23.6
 2004/05/03,16:15,24.6,51,21.8,23.8
 2004/05/03,16:30,24.5,51,21.8,23.8
 2004/05/03,16:45,24.5,51,21.7,23.8
 2004/05/03,17:00,24.3,51,21.6,23.9
 2004/05/03,17:15,24.2,52,21.5,23.9
 2004/05/03,17:30,24.1,52,21.4,23.9
 2004/05/03,17:45,24,52,21.4,23.9
 2004/05/03,18:00,23.9,52,21.2,23.8
 2004/05/03,18:15,23.9,52,21.1,23.7
 2004/05/03,18:30,23.8,52,21.1,23.7
 2004/05/03,18:45,23.7,52,21.1,23.6
 2004/05/03,19:00,23.7,52,21,23.6
 2004/05/03,19:15,23.7,52.5,21,23.5
 2004/05/03,19:30,24,53,21,23.6
 2004/05/03,19:45,24.1,54.5,21.1,23.5
 2004/05/03,20:00,24.2,56,21,23.4
 2004/05/03,20:15,24.2,56,21,23.4
 2004/05/03,20:30,24.3,56,21,23.4
 2004/05/03,20:45,24.4,56,21,23.4
 2004/05/03,21:00,24.3,55,21,23.3
 2004/05/03,21:15,24.4,55,21,23.3
 2004/05/03,21:30,24.4,55,21,23.3
 2004/05/03,21:45,24.3,56,21,23.2
 2004/05/03,22:00,24.3,56,20.9,23.2
 2004/05/03,22:15,24.2,55,20.9,23.2
 2004/05/03,22:30,24.3,55,20.9,23.2
 2004/05/03,22:45,24.3,55,20.9,23.1
 2004/05/03,23:00,24.3,55,20.8,23.1
 2004/05/03,23:15,24.2,55,20.8,23
 2004/05/03,23:30,24.2,55,20.8,22.8
 2004/05/03,23:45,24.2,55,20.8,22.7
 2004/05/04, 0:00,24.1,55,20.7,22.6
 2004/05/04, 0:15,24.1,55,20.6,22.5
 2004/05/04, 0:30,23.9,55,20.5,22.6
 2004/05/04, 0:45,23.9,55,20.5,22.5
 2004/05/04, 1:00,23.7,55,20.5,22.4
 2004/05/04, 1:15,23.6,54.5,20.4,22.4
 2004/05/04, 1:30,23.6,54,20.4,22.2
 2004/05/04, 1:45,23.5,54,20.3,22.1
 2004/05/04, 2:00,23.4,54,20.3,22.1
 2004/05/04, 2:15,23.3,55,20.2,22.1
 2004/05/04, 2:30,23.3,55,20.2,22.1
 2004/05/04, 2:45,23.1,55,20.1,22
 2004/05/04, 3:00,23.1,55,20.2,21.9
 2004/05/04, 3:15,23,55,20.1,21.8
 2004/05/04, 3:30,22.9,55,20.1,21.8
 2004/05/04, 3:45,22.8,55,20,21.7
 2004/05/04, 4:00,22.7,55,20,21.7
 2004/05/04, 4:15,22.7,55.5,20,21.6
 2004/05/04, 4:30,22.7,55,20,21.6
 2004/05/04, 4:45,22.6,55,19.9,21.5
 2004/05/04, 5:00,22.6,55,19.9,21.5
 2004/05/04, 5:15,22.5,55,19.9,21.5
 2004/05/04, 5:30,22.4,55,19.9,21.4
 2004/05/04, 5:45,22.4,55,19.8,21.3
 2004/05/04, 6:00,22.3,55,19.8,21.3
 2004/05/04, 6:15,22.2,55,19.8,21.2
 2004/05/04, 6:30,22.2,55,19.7,21.3
 2004/05/04, 6:45,22.1,55.5,19.7,21.4
 2004/05/04, 7:00,22.1,56,19.7,21.3
 2004/05/04, 7:15,22.1,56,19.8,21.4
 2004/05/04, 7:30,22.2,56,19.7,21.4
 2004/05/04, 7:45,22.4,57.5,19.8,21.5
 2004/05/04, 8:00,22.7,58,19.8,21.5
 2004/05/04, 8:15,22.9,57.5,19.9,21.5
 2004/05/04, 8:30,23.3,58,19.9,21.6
 2004/05/04, 8:45,23.1,57.5,20,21.6
 2004/05/04, 9:00,23.2,57,20,21.7
 2004/05/04, 9:15,23.5,56.5,20,21.8
 2004/05/04, 9:30,23.4,56,20.3,21.8
 2004/05/04, 9:45,23.6,55,20.4,21.8
 2004/05/04,10:00,23.7,54,20.4,21.8
 2004/05/04,10:15,23.9,54,20.5,21.9
 2004/05/04,10:30,24,54,20.6,21.9
 2004/05/04,10:45,24.1,54,20.7,22.1
 2004/05/04,11:00,24.3,54,20.9,22.2
 2004/05/04,11:15,24.4,53,21,22.2
 2004/05/04,11:30,24.5,53,21,22.2
 2004/05/04,11:45,24.6,53,21.1,22.2
 2004/05/04,12:00,24.7,53,21.2,22.3
 2004/05/04,12:15,24.9,53,21.4,22.4
 2004/05/04,12:30,25,52,21.5,22.4
 2004/05/04,12:45,25,52.5,21.6,22.5
 2004/05/04,13:00,25.2,52,21.8,22.5
 2004/05/04,13:15,25.4,52,21.9,22.6
 2004/05/04,13:30,25.5,51,22,22.6
 2004/05/04,13:45,25.5,51,22.1,22.6
 2004/05/04,14:00,25.5,51,22.1,22.6
 2004/05/04,14:15,25.4,51,22.1,22.6
 2004/05/04,14:30,25.4,51,22.2,22.6
 2004/05/04,14:45,25.4,51,22.1,22.6
 2004/05/04,15:00,25.3,51,22.2,22.5
 2004/05/04,15:15,25.4,50.5,22.2,22.4
 2004/05/04,15:30,25.5,50,22.3,22.3
 2004/05/04,15:45,25.4,50,22.2,22.1
 2004/05/04,16:00,25.4,50,22.2,22
 2004/05/04,16:15,25.3,50.5,22.2,21.9
 2004/05/04,16:30,25.2,50,22.2,21.8
 2004/05/04,16:45,25.2,50.5,22.2,21.8
 2004/05/04,17:00,25,51,22.2,21.6
 2004/05/04,17:15,25,51.5,22.2,21.5
 2004/05/04,17:30,25.3,53,22.2,21.3
 2004/05/04,17:45,25.1,45.5,22.1,21.1
 2004/05/04,18:00,25.1,44,22.1,21
 2004/05/04,18:15,25.4,50,22.1,20.8
 2004/05/04,18:30,25.5,50,22,20.6
 2004/05/04,18:45,25.6,53,22,20.6
 2004/05/04,19:00,25.7,55,22.1,20.4
 2004/05/04,19:15,25.9,56.5,22,20.3
 2004/05/04,19:30,26,56,22,20.2
 2004/05/04,19:45,26,56.5,22,20.1
 2004/05/04,20:00,26.1,57,22,19.8
 2004/05/04,20:15,26.1,55.5,22,19.8
 2004/05/04,20:30,26,55,22,19.8
 2004/05/04,20:45,26.1,55.5,22,19.8
 2004/05/04,21:00,26.1,56,21.9,19.8
 2004/05/04,21:15,26.1,56,21.9,19.7
 2004/05/04,21:30,26.1,56,21.9,19.7
 2004/05/04,21:45,26,55,22,19.6
 2004/05/04,22:00,26.1,55,22,19.5
 2004/05/04,22:15,26.1,55,22,19.5
 2004/05/04,22:30,26.1,55,22.1,19.4
 2004/05/04,22:45,26.1,55,22,19.4
 2004/05/04,23:00,26,56,22,19.4
 2004/05/04,23:15,26,56,22,19.4
 2004/05/04,23:30,26.3,57,22,19.3
 2004/05/04,23:45,26.1,56.5,22,19.4
 2004/05/05, 0:00,26.1,57,21.9,19.4
 2004/05/05, 0:15,26,57,22,19.3
 2004/05/05, 0:30,25.9,57,21.9,19.3
 2004/05/05, 0:45,25.9,56.5,21.8,19.3
 2004/05/05, 1:00,25.9,56,21.7,19.3
 2004/05/05, 1:15,25.9,56,21.7,19.2
 2004/05/05, 1:30,25.8,56,21.7,19.1
 2004/05/05, 1:45,25.8,56,21.6,19.1
 2004/05/05, 2:00,25.7,56,21.6,19.1
 2004/05/05, 2:15,25.6,56,21.6,19
 2004/05/05, 2:30,25.5,56,21.6,19
 2004/05/05, 2:45,25.4,56,21.5,19
 2004/05/05, 3:00,25.4,56,21.5,19
 2004/05/05, 3:15,25.3,56,21.5,18.9
 2004/05/05, 3:30,25.2,56,21.4,18.9
 2004/05/05, 3:45,25.1,56,21.4,18.9
 2004/05/05, 4:00,25.1,56,21.4,18.8
 2004/05/05, 4:15,25,56,21.3,18.8
 2004/05/05, 4:30,25,56,21.3,18.9
 2004/05/05, 4:45,24.9,56,21.3,18.9
 2004/05/05, 5:00,24.8,56,21.3,18.8
 2004/05/05, 5:15,24.7,56.5,21.2,18.8
 2004/05/05, 5:30,24.6,57,21.2,18.7
 2004/05/05, 5:45,24.6,57,21.2,18.8
 2004/05/05, 6:00,24.6,57,21.2,18.7
 2004/05/05, 6:15,24.5,57,21.2,18.7
 2004/05/05, 6:30,24.5,57,21.1,18.7
 2004/05/05, 6:45,24.5,57,21.1,18.6
 2004/05/05, 7:00,24.4,57,21.1,18.7
 2004/05/05, 7:15,24.4,57,21.1,18.7
 2004/05/05, 7:30,24.3,57,21.1,18.7
 2004/05/05, 7:45,24.4,57.5,21.1,18.8
 2004/05/05, 8:00,24.6,61,21.1,18.8
 2004/05/05, 8:15,24.5,64.5,21.1,18.8
 2004/05/05, 8:30,24.6,62,21.1,19
 2004/05/05, 8:45,24.5,62,21.2,19
 2004/05/05, 9:00,24.4,72,21.3,19.1
 2004/05/05, 9:15,24.2,70,21.2,19.3
 2004/05/05, 9:30,24.1,71,21.2,19.5
 2004/05/05, 9:45,24,70.5,21.2,19.5
 2004/05/05,10:00,24,69,21.2,19.6
 2004/05/05,10:15,24,68.5,21.3,19.6
 2004/05/05,10:30,24.1,70,21.3,19.8
 2004/05/05,10:45,24.2,68.5,21.3,19.9
 2004/05/05,11:00,24.2,66,21.3,20
 2004/05/05,11:15,24.2,67,21.4,20.1
 2004/05/05,11:30,24.2,69,21.4,20.2
 2004/05/05,11:45,24.1,71,21.5,20.3
 2004/05/05,12:00,24.1,74,21.8,20.4
 2004/05/05,12:15,24.2,74.5,21.8,20.4
 2004/05/05,12:30,24.2,75,21.9,20.5
 2004/05/05,12:45,24.2,75.5,21.9,20.6
 2004/05/05,13:00,24.2,76,21.9,20.7
 2004/05/05,13:15,24.1,79,21.9,20.8
 2004/05/05,13:30,24.3,76,21.8,20.9
 2004/05/05,13:45,24.3,76.5,21.8,21
 2004/05/05,14:00,24.3,78,21.7,21
 2004/05/05,14:15,24.4,78,21.8,21.1
 2004/05/05,14:30,24.3,78,21.8,21.2
 2004/05/05,14:45,24.2,77,21.8,21.2
 2004/05/05,15:00,24.2,76,21.7,21.4
 2004/05/05,15:15,24,74.5,21.5,21.5
 2004/05/05,15:30,24,74,21.4,21.5
 2004/05/05,15:45,24,72,21.2,21.6
 2004/05/05,16:00,23.9,72,21.1,21.6
 2004/05/05,16:15,23.8,71,21,21.5
 2004/05/05,16:30,23.8,71,20.9,21.6
 2004/05/05,16:45,23.6,71,20.8,21.6
 2004/05/05,17:00,23.5,71,20.5,21.7
 2004/05/05,17:15,23.4,69.5,20.5,21.6
 2004/05/05,17:30,23.4,68,20.7,21.6
 2004/05/05,17:45,23.2,67,20.9,21.6
 2004/05/05,18:00,23,67,20.8,21.5
 2004/05/05,18:15,23,68,20.7,21.5
 2004/05/05,18:30,23,67,20.6,21.4
 2004/05/05,18:45,23.1,67,20.6,21.3
 2004/05/05,19:00,23.6,68,20.7,21.2
 2004/05/05,19:15,23.7,68,20.6,21
 2004/05/05,19:30,23.7,68,20.6,20.9
 2004/05/05,19:45,23.8,67,20.5,20.7
 2004/05/05,20:00,24.2,67,20.5,20.6
 2004/05/05,20:15,24.2,67,20.5,20.4
 2004/05/05,20:30,24.3,66,20.4,20.2
 2004/05/05,20:45,24,65.5,20.4,20
 2004/05/05,21:00,24.1,65,20.4,20
 2004/05/05,21:15,23.6,62.5,19.5,19.8
 2004/05/05,21:30,23.5,64,20,19.7
 2004/05/05,21:45,23.5,64,20.1,19.6
 2004/05/05,22:00,23.2,63,20.3,19.5
 2004/05/05,22:15,23.2,64,20.3,19.4
 2004/05/05,22:30,23.3,64,20.2,19.3
 2004/05/05,22:45,23.4,64.5,20.1,19.2
 2004/05/05,23:00,23.4,64,20.1,19.2
 2004/05/05,23:15,23.5,64,20,19
 2004/05/05,23:30,23.5,64,20,19
 2004/05/05,23:45,23.4,64,20,18.9
 2004/05/06, 0:00,23.3,64,20,18.8
 2004/05/06, 0:15,23.3,64,20,18.6
 2004/05/06, 0:30,23.2,64,19.9,18.5
 2004/05/06, 0:45,23.1,64,19.9,18.5
 2004/05/06, 1:00,23,64,19.9,18.2
 2004/05/06, 1:15,22.9,64,19.8,18.1
 2004/05/06, 1:30,22.8,64,19.7,18.1
 2004/05/06, 1:45,22.8,64,19.7,18
 2004/05/06, 2:00,22.6,64,19.7,17.9
 2004/05/06, 2:15,22.6,64,19.6,17.8
 2004/05/06, 2:30,22.5,64,19.6,17.6
 2004/05/06, 2:45,22.5,64,19.5,17.5
 2004/05/06, 3:00,22.5,64,19.5,17.5
 2004/05/06, 3:15,22.3,64,19.5,17.4
 2004/05/06, 3:30,22.3,64,19.4,17.3
 2004/05/06, 3:45,22.2,64,19.4,17.2
 2004/05/06, 4:00,22.2,64,19.4,17.1
 2004/05/06, 4:15,22.1,64,19.4,16.9
 2004/05/06, 4:30,22.1,64,19.3,16.9
 2004/05/06, 4:45,22,64,19.2,16.8
 2004/05/06, 5:00,22,64,19.2,16.7
 2004/05/06, 5:15,21.9,64,19.2,16.5
 2004/05/06, 5:30,21.8,64,19.2,16.4
 2004/05/06, 5:45,21.8,64,19.1,16.4
 2004/05/06, 6:00,21.7,64,19.1,16.5
 2004/05/06, 6:15,21.6,63,19.1,16.5
 2004/05/06, 6:30,21.7,63,19,16.7
 2004/05/06, 6:45,21.5,63,19,17
 2004/05/06, 7:00,21.5,63,19,17
 2004/05/06, 7:15,21.5,63,19,17
 2004/05/06, 7:30,21.5,63,19,17
 2004/05/06, 7:45,21.6,63,19,17.1
 2004/05/06, 8:00,21.6,64,19,17.2
 2004/05/06, 8:15,21.7,63,19.1,17.4
 2004/05/06, 8:30,22.1,64,19.2,17.5
 2004/05/06, 8:45,22.3,66,19.1,17.5
 2004/05/06, 9:00,22.4,65,19.1,17.7
 2004/05/06, 9:15,22.5,65,19.2,17.9
 2004/05/06, 9:30,22.3,65,19.2,17.9
 2004/05/06, 9:45,22.3,65,19.2,18
 2004/05/06,10:00,22.3,64,19.2,18.2
 2004/05/06,10:15,22.4,64,19.2,18.4
 2004/05/06,10:30,22.4,64,19.3,18.5
 2004/05/06,10:45,22.5,63.5,19.5,18.7
 2004/05/06,11:00,22.6,63,19.5,18.8
 2004/05/06,11:15,22.6,63,19.5,19
 2004/05/06,11:30,22.6,63,19.5,19.1
 2004/05/06,11:45,22.6,62.5,19.5,19.2
 2004/05/06,12:00,22.6,62,19.5,19.4
 2004/05/06,12:15,22.6,62,19.5,19.5
 2004/05/06,12:30,22.8,62,19.5,19.7
 2004/05/06,12:45,22.8,62,19.6,19.8
 2004/05/06,13:00,23,62,19.7,19.9
 2004/05/06,13:15,22.9,61.5,19.7,20
 2004/05/06,13:30,23,61,19.8,20.3
 2004/05/06,13:45,23,61,19.7,20.5
 2004/05/06,14:00,23,61,19.8,20.6
 2004/05/06,14:15,23,60.5,19.8,20.8
 2004/05/06,14:30,23.1,61,19.8,20.8
 2004/05/06,14:45,23.2,60,19.9,21
 2004/05/06,15:00,23.2,60,19.9,21.1
 2004/05/06,15:15,23.2,60,20,21.2
 2004/05/06,15:30,23.3,60,20,21.3
 2004/05/06,15:45,23.4,60.5,20.1,21.5
 2004/05/06,16:00,23.2,61,20.1,21.5
 2004/05/06,16:15,23,62.5,20.1,21.6
 2004/05/06,16:30,22.9,63,20.1,21.7
 2004/05/06,16:45,22.9,60,20.2,21.8
 2004/05/06,17:00,22.9,59,20.2,21.8
 2004/05/06,17:15,22.8,63,20.2,21.9
 2004/05/06,17:30,22.6,58,20.2,22
 2004/05/06,17:45,22.4,54,20.1,22
 2004/05/06,18:00,22.7,57,20.1,22.1
 2004/05/06,18:15,23.2,61.5,20.1,22.1
 2004/05/06,18:30,23.4,64,20.1,22.1
 2004/05/06,18:45,23.4,63,20,22.2
 2004/05/06,19:00,23.5,63,20,22.2
 2004/05/06,19:15,23.3,62,20,22.2
 2004/05/06,19:30,23.3,60,20,22.2
 2004/05/06,19:45,23.1,59.5,20,22.1
 2004/05/06,20:00,23,60,20,22.1
 2004/05/06,20:15,22.9,59,20,22
 2004/05/06,20:30,22.6,58,19.9,21.9
 2004/05/06,20:45,23,61.5,19.9,21.9
 2004/05/06,21:00,22.8,61,19.8,21.8
 2004/05/06,21:15,22.6,60,19.7,21.8
 2004/05/06,21:30,22.8,61,19.6,21.7
 2004/05/06,21:45,22.9,61,19.6,21.6
 2004/05/06,22:00,22.9,61,19.6,21.5
 2004/05/06,22:15,23,61,19.5,21.5
 2004/05/06,22:30,22.9,61,19.5,21.4
 2004/05/06,22:45,23,61,19.3,21.4
 2004/05/06,23:00,23.1,61,19.3,21.3
 2004/05/06,23:15,23.1,61.5,19.2,21.1
 2004/05/06,23:30,23.1,62,19.2,21
 2004/05/06,23:45,23.1,61,19.1,21
 2004/05/07, 0:00,23,60,19.1,20.9
 2004/05/07, 0:15,22.7,60,19,20.8
 2004/05/07, 0:30,22.6,60,18.9,20.6
 2004/05/07, 0:45,22.4,60,18.9,20.6
 2004/05/07, 1:00,22.3,60,18.8,20.4
 2004/05/07, 1:15,22.1,59.5,18.8,20.2
 2004/05/07, 1:30,22,59,18.7,20.2
 2004/05/07, 1:45,22,59,18.6,20
 2004/05/07, 2:00,21.8,59,18.6,19.9
 2004/05/07, 2:15,21.7,59,18.5,19.8
 2004/05/07, 2:30,21.6,59,18.5,19.7
 2004/05/07, 2:45,21.5,59,18.4,19.5
 2004/05/07, 3:00,21.4,59,18.3,19.4
 2004/05/07, 3:15,21.2,59,18.2,19.2
 2004/05/07, 3:30,21.1,59,18.2,19.3
 2004/05/07, 3:45,21,59,18.1,19.1
 2004/05/07, 4:00,21,59,18.1,19
 2004/05/07, 4:15,20.9,59.5,18,18.9
 2004/05/07, 4:30,20.8,60,18,18.7
 2004/05/07, 4:45,20.8,61,17.9,18.6
 2004/05/07, 5:00,20.7,60,17.8,18.5
 2004/05/07, 5:15,20.5,60,17.7,18.5
 2004/05/07, 5:30,20.5,60,17.7,18.3
 2004/05/07, 5:45,20.5,59.5,17.6,18.4
 2004/05/07, 6:00,20.4,59,17.6,18.3
 2004/05/07, 6:15,20.4,59,17.5,18.2
 2004/05/07, 6:30,20.3,59,17.5,18.4
 2004/05/07, 6:45,20.4,62,17.1,18.7
 2004/05/07, 7:00,20.2,62,17.2,18.6
 2004/05/07, 7:15,20.1,62,17.4,18.7
 2004/05/07, 7:30,20.1,62,17.4,18.8
 2004/05/07, 7:45,20.1,61.5,17.4,18.9
 2004/05/07, 8:00,20.1,61,17.5,19
 2004/05/07, 8:15,20.2,61,17.5,19.1
 2004/05/07, 8:30,20.3,61,17.5,19.2
 2004/05/07, 8:45,20.2,60,17.5,19.2
 2004/05/07, 9:00,20.4,60,17.7,19.4
 2004/05/07, 9:15,20.5,60,17.8,19.5
 2004/05/07, 9:30,20.6,60,17.8,19.6
 2004/05/07, 9:45,20.6,59.5,18,19.8
 2004/05/07,10:00,20.8,59,18.1,19.9
 2004/05/07,10:15,21,59,18.1,20
 2004/05/07,10:30,-9.9,-9.9,-9.9,20.2
 2004/05/07,10:45,-9.9,-9.9,-9.9,20.4
 2004/05/07,11:00,-9.9,-9.9,-9.9,20.5
 2004/05/07,11:15,-9.9,-9.9,-9.9,20.6
 2004/05/07,11:30,-9.9,-9.9,-9.9,20.8
 2004/05/07,11:45,-9.9,-9.9,-9.9,21
 2004/05/07,12:00,-9.9,-9.9,-9.9,21.2
 2004/05/07,12:15,-9.9,-9.9,-9.9,21.4
 2004/05/07,12:30,-9.9,-9.9,-9.9,21.5
 2004/05/07,12:45,-9.9,-9.9,-9.9,21.6
 2004/05/07,13:00,-9.9,-9.9,-9.9,21.8
 2004/05/07,13:15,-9.9,-9.9,-9.9,22
 2004/05/07,13:30,-9.9,-9.9,-9.9,22.1
 2004/05/07,13:45,-9.9,-9.9,-9.9,22.2
 2004/05/07,14:00,-9.9,-9.9,-9.9,22.3
 2004/05/07,14:15,-9.9,-9.9,-9.9,22.5
 2004/05/07,14:30,-9.9,-9.9,-9.9,22.6
 2004/05/07,14:45,-9.9,-9.9,-9.9,22.6
 2004/05/07,15:00,-9.9,-9.9,-9.9,22.8
 2004/05/07,15:15,-9.9,-9.9,-9.9,22.9
 2004/05/07,15:30,-9.9,-9.9,-9.9,23
 2004/05/07,15:45,-9.9,-9.9,-9.9,23.1
 2004/05/07,16:00,-9.9,-9.9,-9.9,23.2
 2004/05/07,16:15,-9.9,-9.9,-9.9,23.3
 2004/05/07,16:30,-9.9,-9.9,-9.9,23.4
 2004/05/07,16:45,-9.9,-9.9,-9.9,23.5
 2004/05/07,17:00,-9.9,-9.9,-9.9,23.5
 2004/05/07,17:15,-9.9,-9.9,-9.9,23.5
 2004/05/07,17:30,-9.9,-9.9,-9.9,23.6
 2004/05/07,17:45,-9.9,-9.9,-9.9,23.8
 2004/05/07,18:00,-9.9,-9.9,-9.9,23.8
 2004/05/07,18:15,-9.9,-9.9,-9.9,23.8
 2004/05/07,18:30,-9.9,-9.9,-9.9,23.7
 2004/05/07,18:45,-9.9,-9.9,-9.9,23.5
 2004/05/07,19:00,-9.9,-9.9,-9.9,23.5